| time (UTC) | temp F | wind direction | speed knots | gust knots | rain 1hr in | rain 24hr in | rain mn in | humidity % | barometer mb |
| 20260502180535 | 87 | 153 | 12.2 | 18.2 | 0.00 | 0.00 | 0.00 | 23 | 1013.6 |
| 20260502164034 | 84 | 134 | 8.7 | 18.2 | 0.00 | 0.00 | 0.00 | 26 | 1013.8 |
| 20260502163535 | 83 | 142 | 8.7 | 20.0 | 0.00 | 0.00 | 0.00 | 25 | 1013.9 |
| 20260502163053 | 83 | 116 | 13.9 | 20.0 | 0.00 | 0.00 | 0.00 | 25 | 1013.9 |
| 20260502162536 | 83 | 155 | 13.0 | 20.0 | 0.00 | 0.00 | 0.00 | 25 | 1013.9 |
| 20260502162037 | 83 | 141 | 7.8 | 20.0 | 0.00 | 0.00 | 0.00 | 26 | 1013.9 |
| 20260502161549 | 83 | 146 | 13.0 | 19.1 | 0.00 | 0.00 | 0.00 | 25 | 1013.8 |
| 20260502161035 | 82 | 134 | 7.0 | 17.4 | 0.00 | 0.00 | 0.00 | 24 | 1013.9 |
| 20260502160535 | 82 | 168 | 8.7 | 14.8 | 0.00 | 0.00 | 0.00 | 23 | 1013.9 |
| 20260502152035 | 80 | 181 | 7.8 | 12.2 | 0.00 | 0.00 | 0.00 | 23 | 1013.5 |
| 20260502151553 | 80 | 130 | 9.6 | 13.0 | 0.00 | 0.00 | 0.00 | 24 | 1013.5 |
| 20260502151034 | 80 | 142 | 8.7 | 13.9 | 0.00 | 0.00 | 0.00 | 24 | 1013.5 |
| 20260502150534 | 79 | 170 | 8.7 | 13.9 | 0.00 | 0.00 | 0.00 | 24 | 1013.3 |
| 20260502130537 | 70 | 67 | 1.7 | 4.3 | 0.00 | 0.00 | 0.00 | 30 | 1012.0 |
| 20260502123536 | 70 | 51 | 1.7 | 7.0 | 0.00 | 0.00 | 0.00 | 29 | 1011.6 |
| 20260502123049 | 70 | 20 | 2.6 | 4.3 | 0.00 | 0.00 | 0.00 | 28 | 1011.6 |
| 20260502122535 | 70 | 178 | 0.9 | 4.3 | 0.00 | 0.00 | 0.00 | 28 | 1011.5 |
| 20260502122034 | 70 | 341 | 1.7 | 4.3 | 0.00 | 0.00 | 0.00 | 28 | 1011.4 |
| 20260502121551 | 70 | 9 | 2.6 | 6.1 | 0.00 | 0.00 | 0.00 | 28 | 1011.2 |
| 20260502121035 | 70 | 9 | 1.7 | 7.8 | 0.00 | 0.00 | 0.00 | 28 | 1011.2 |
| 20260502120536 | 70 | 42 | 4.3 | 7.8 | 0.00 | 0.00 | 0.00 | 29 | 1011.2 |
| 20260502115538 | 70 | 13 | 2.6 | 5.2 | 0.00 | 0.00 | 0.00 | 29 | 1011.2 |
| 20260502115035 | 70 | 24 | 0.9 | 3.5 | 0.00 | 0.00 | 0.00 | 30 | 1011.3 |
| 20260502114549 | 70 | 0 | 0.9 | 3.5 | 0.00 | 0.00 | 0.00 | 29 | 1011.3 |
| 20260502114035 | 69 | 88 | 1.7 | 3.5 | 0.00 | 0.00 | 0.00 | 29 | 1011.2 |
| 20260502113535 | 69 | 124 | 0.9 | 2.6 | 0.00 | 0.00 | 0.00 | 29 | 1011.1 |
| 20260502113045 | 69 | 0 | 0.0 | 3.5 | 0.00 | 0.00 | 0.00 | 29 | 1011.2 |
| 20260502112534 | 69 | 86 | 0.9 | 3.5 | 0.00 | 0.00 | 0.00 | 30 | 1011.2 |
| 20260502112035 | 69 | 86 | 0.9 | 2.6 | 0.00 | 0.00 | 0.00 | 30 | 1011.1 |
| 20260502111545 | 68 | 92 | 0.9 | 2.6 | 0.00 | 0.00 | 0.00 | 30 | 1011.2 |
| 20260502111036 | 68 | 80 | 0.9 | 2.6 | 0.00 | 0.00 | 0.00 | 29 | 1011.1 |
| 20260502110534 | 68 | 76 | 1.7 | 3.5 | 0.00 | 0.00 | 0.00 | 29 | 1011.1 |
| 20260502110054 | 68 | 247 | 0.9 | 3.5 | 0.00 | 0.00 | 0.00 | 28 | 1011.1 |
| 20260502105534 | 69 | 92 | 0.0 | 1.7 | 0.00 | 0.00 | 0.00 | 27 | 1011.1 |
| 20260502105036 | 69 | 0 | 0.0 | 2.6 | 0.00 | 0.00 | 0.00 | 28 | 1011.2 |
| 20260502104551 | 69 | 0 | 0.9 | 2.6 | 0.00 | 0.00 | 0.00 | 27 | 1011.1 |
| 20260502104035 | 70 | 136 | 0.9 | 2.6 | 0.00 | 0.00 | 0.00 | 28 | 1011.1 |
| 20260502103535 | 70 | 148 | 0.0 | 1.7 | 0.00 | 0.00 | 0.00 | 27 | 1011.1 |
| 20260502103054 | 71 | 170 | 0.9 | 1.7 | 0.00 | 0.00 | 0.00 | 26 | 1011.1 |
| 20260502102538 | 71 | 0 | 0.0 | 1.7 | 0.00 | 0.00 | 0.00 | 26 | 1011.0 |
| 20260502102035 | 72 | 51 | 0.0 | 1.7 | 0.00 | 0.00 | 0.00 | 26 | 1011.0 |
| 20260502101557 | 72 | 0 | 0.0 | 2.6 | 0.00 | 0.00 | 0.00 | 26 | 1010.9 |
| 20260502101034 | 72 | 80 | 0.0 | 2.6 | 0.00 | 0.00 | 0.00 | 26 | 1010.9 |
| 20260502100534 | 73 | 67 | 0.9 | 1.7 | 0.00 | 0.00 | 0.00 | 25 | 1010.8 |
| 20260502100108 | 73 | 0 | 0.9 | 2.6 | 0.00 | 0.00 | 0.00 | 25 | 1010.8 |
| 20260502091036 | 74 | 22 | 0.9 | 4.3 | 0.00 | 0.00 | 0.00 | 24 | 1010.7 |
| 20260502090535 | 74 | 34 | 2.6 | 4.3 | 0.00 | 0.00 | 0.00 | 25 | 1010.6 |
| 20260502071035 | 76 | 28 | 0.9 | 4.3 | 0.00 | 0.00 | 0.00 | 22 | 1009.9 |
| 20260502070535 | 77 | 44 | 0.0 | 7.0 | 0.00 | 0.00 | 0.00 | 22 | 1009.9 |
| 20260502070049 | 77 | 279 | 3.5 | 7.8 | 0.00 | 0.00 | 0.00 | 21 | 1009.9 |
| 20260502065538 | 77 | 255 | 5.2 | 7.8 | 0.00 | 0.00 | 0.00 | 21 | 1009.8 |
| 20260502065034 | 77 | 249 | 1.7 | 8.7 | 0.00 | 0.00 | 0.00 | 21 | 1009.8 |
| 20260502064553 | 78 | 0 | 3.5 | 8.7 | 0.00 | 0.00 | 0.00 | 20 | 1009.8 |
| 20260502064035 | 77 | 254 | 6.1 | 8.7 | 0.00 | 0.00 | 0.00 | 20 | 1009.8 |
| 20260502063537 | 77 | 259 | 5.2 | 10.4 | 0.00 | 0.00 | 0.00 | 20 | 1009.7 |
| 20260502063042 | 77 | 250 | 7.0 | 10.4 | 0.00 | 0.00 | 0.00 | 20 | 1009.7 |
| 20260502062536 | 77 | 248 | 6.1 | 10.4 | 0.00 | 0.00 | 0.00 | 20 | 1009.7 |
| 20260502062034 | 77 | 248 | 6.1 | 10.4 | 0.00 | 0.00 | 0.00 | 20 | 1009.7 |
| 20260502061600 | 77 | 252 | 5.2 | 9.6 | 0.00 | 0.00 | 0.00 | 20 | 1009.7 |
| 20260502061035 | 77 | 246 | 7.0 | 9.6 | 0.00 | 0.00 | 0.00 | 20 | 1009.7 |
| 20260502060536 | 78 | 229 | 5.2 | 8.7 | 0.00 | 0.00 | 0.00 | 20 | 1009.6 |
| 20260502060048 | 78 | 254 | 6.1 | 9.6 | 0.00 | 0.00 | 0.00 | 20 | 1009.6 |
| 20260502055535 | 77 | 255 | 7.0 | 9.6 | 0.00 | 0.00 | 0.00 | 20 | 1009.6 |
| 20260502055035 | 77 | 254 | 7.0 | 9.6 | 0.00 | 0.00 | 0.00 | 20 | 1009.5 |
| 20260502054545 | 77 | 271 | 5.2 | 8.7 | 0.00 | 0.00 | 0.00 | 21 | 1009.6 |
| 20260502054034 | 77 | 273 | 6.1 | 8.7 | 0.00 | 0.00 | 0.00 | 21 | 1009.6 |
| 20260502053535 | 78 | 273 | 6.1 | 8.7 | 0.00 | 0.00 | 0.00 | 20 | 1009.6 |
| 20260502053047 | 78 | 291 | 6.1 | 8.7 | 0.00 | 0.00 | 0.00 | 20 | 1009.5 |
| 20260502052536 | 78 | 275 | 5.2 | 7.8 | 0.00 | 0.00 | 0.00 | 20 | 1009.5 |
| 20260502052036 | 79 | 291 | 5.2 | 7.8 | 0.00 | 0.00 | 0.00 | 19 | 1009.4 |
| 20260502051545 | 79 | 288 | 5.2 | 7.8 | 0.00 | 0.00 | 0.00 | 19 | 1009.4 |
| 20260502051035 | 79 | 273 | 6.1 | 7.8 | 0.00 | 0.00 | 0.00 | 19 | 1009.5 |
| 20260502050536 | 80 | 284 | 4.3 | 7.8 | 0.00 | 0.00 | 0.00 | 18 | 1009.4 |
| 20260502050051 | 80 | 286 | 5.2 | 7.8 | 0.00 | 0.00 | 0.00 | 18 | 1009.3 |
| 20260502045535 | 81 | 288 | 5.2 | 7.0 | 0.00 | 0.00 | 0.00 | 18 | 1009.3 |
| 20260502045035 | 81 | 282 | 4.3 | 7.0 | 0.00 | 0.00 | 0.00 | 18 | 1009.2 |
| 20260502044540 | 81 | 286 | 3.5 | 6.1 | 0.00 | 0.00 | 0.00 | 17 | 1009.2 |
| 20260502044035 | 82 | 288 | 3.5 | 6.1 | 0.00 | 0.00 | 0.00 | 17 | 1009.0 |
| 20260502043535 | 82 | 286 | 3.5 | 7.0 | 0.00 | 0.00 | 0.00 | 17 | 1009.1 |
| 20260502043101 | 82 | 279 | 3.5 | 7.0 | 0.00 | 0.00 | 0.00 | 17 | 1009.0 |
| 20260502042536 | 83 | 282 | 3.5 | 7.0 | 0.00 | 0.00 | 0.00 | 17 | 1008.9 |
| 20260502042035 | 83 | 275 | 3.5 | 7.0 | 0.00 | 0.00 | 0.00 | 17 | 1008.9 |
| 20260502041552 | 83 | 265 | 2.6 | 7.0 | 0.00 | 0.00 | 0.00 | 16 | 1008.7 |
| 20260502041035 | 83 | 286 | 3.5 | 7.0 | 0.00 | 0.00 | 0.00 | 16 | 1008.8 |
| 20260502040536 | 83 | 272 | 3.5 | 7.0 | 0.00 | 0.00 | 0.00 | 16 | 1008.7 |
| 20260502040108 | 83 | 286 | 3.5 | 7.0 | 0.00 | 0.00 | 0.00 | 16 | 1008.7 |
| 20260502035535 | 83 | 265 | 3.5 | 6.1 | 0.00 | 0.00 | 0.00 | 16 | 1008.7 |
| 20260502035037 | 84 | 273 | 3.5 | 6.1 | 0.00 | 0.00 | 0.00 | 16 | 1008.6 |
| 20260502034545 | 84 | 257 | 2.6 | 5.2 | 0.00 | 0.00 | 0.00 | 16 | 1008.6 |
| 20260502034036 | 84 | 265 | 2.6 | 5.2 | 0.00 | 0.00 | 0.00 | 16 | 1008.5 |
| 20260502033535 | 84 | 280 | 2.6 | 6.1 | 0.00 | 0.00 | 0.00 | 17 | 1008.5 |
| 20260502033048 | 84 | 273 | 2.6 | 7.0 | 0.00 | 0.00 | 0.00 | 17 | 1008.5 |
| 20260502032536 | 84 | 254 | 2.6 | 7.0 | 0.00 | 0.00 | 0.00 | 17 | 1008.3 |
| 20260502032035 | 84 | 275 | 2.6 | 7.0 | 0.00 | 0.00 | 0.00 | 17 | 1008.2 |
| 20260502031550 | 84 | 279 | 2.6 | 6.1 | 0.00 | 0.00 | 0.00 | 17 | 1008.3 |
| 20260502031038 | 84 | 247 | 2.6 | 7.0 | 0.00 | 0.00 | 0.00 | 17 | 1008.2 |
| 20260502030537 | 85 | 279 | 2.6 | 7.0 | 0.00 | 0.00 | 0.00 | 17 | 1008.2 |
| 20260502030050 | 85 | 293 | 3.5 | 7.0 | 0.00 | 0.00 | 0.00 | 17 | 1008.1 |
| 20260502025537 | 85 | 269 | 3.5 | 6.1 | 0.00 | 0.00 | 0.00 | 17 | 1008.0 |
| 20260502025039 | 85 | 275 | 3.5 | 6.1 | 0.00 | 0.00 | 0.00 | 17 | 1007.9 |
| 20260502024600 | 85 | 247 | 3.5 | 7.8 | 0.00 | 0.00 | 0.00 | 17 | 1007.9 |
| 20260502024036 | 85 | 257 | 3.5 | 7.8 | 0.00 | 0.00 | 0.00 | 17 | 1007.8 |
| 20260502023540 | 86 | 259 | 4.3 | 7.0 | 0.00 | 0.00 | 0.00 | 17 | 1007.8 |
| 20260502023051 | 86 | 250 | 3.5 | 7.8 | 0.00 | 0.00 | 0.00 | 16 | 1007.7 |
| 20260502022535 | 86 | 265 | 4.3 | 7.8 | 0.00 | 0.00 | 0.00 | 17 | 1007.7 |
| 20260502022036 | 86 | 249 | 3.5 | 7.8 | 0.00 | 0.00 | 0.00 | 17 | 1007.7 |
| 20260502021552 | 86 | 257 | 4.3 | 9.6 | 0.00 | 0.00 | 0.00 | 17 | 1007.6 |
| 20260502021035 | 86 | 272 | 5.2 | 9.6 | 0.00 | 0.00 | 0.00 | 17 | 1007.6 |
| 20260502020535 | 87 | 261 | 7.0 | 10.4 | 0.00 | 0.00 | 0.00 | 17 | 1007.5 |
| 20260502020046 | 87 | 265 | 7.8 | 10.4 | 0.00 | 0.00 | 0.00 | 16 | 1007.6 |
| 20260502015537 | 87 | 249 | 7.0 | 13.0 | 0.00 | 0.00 | 0.00 | 17 | 1007.5 |
| 20260502015038 | 87 | 254 | 8.7 | 13.0 | 0.00 | 0.00 | 0.00 | 16 | 1007.5 |
| 20260502014546 | 87 | 284 | 6.1 | 10.4 | 0.00 | 0.00 | 0.00 | 16 | 1007.5 |
| 20260502014035 | 88 | 265 | 7.0 | 9.6 | 0.00 | 0.00 | 0.00 | 16 | 1007.5 |
| 20260502013535 | 88 | 252 | 7.0 | 11.3 | 0.00 | 0.00 | 0.00 | 16 | 1007.5 |
| 20260502013051 | 88 | 262 | 7.0 | 12.2 | 0.00 | 0.00 | 0.00 | 16 | 1007.6 |
| 20260502012537 | 88 | 239 | 7.0 | 12.2 | 0.00 | 0.00 | 0.00 | 16 | 1007.6 |
| 20260502012035 | 88 | 272 | 6.1 | 11.3 | 0.00 | 0.00 | 0.00 | 16 | 1007.4 |
| 20260502011544 | 88 | 269 | 7.8 | 11.3 | 0.00 | 0.00 | 0.00 | 16 | 1007.5 |
| 20260502011034 | 88 | 244 | 7.8 | 12.2 | 0.00 | 0.00 | 0.00 | 16 | 1007.5 |
| 20260502010534 | 89 | 237 | 7.8 | 13.0 | 0.00 | 0.00 | 0.00 | 16 | 1007.5 |
| 20260502010107 | 89 | 284 | 8.7 | 13.0 | 0.00 | 0.00 | 0.00 | 16 | 1007.6 |
| 20260502005534 | 89 | 236 | 8.7 | 13.0 | 0.00 | 0.00 | 0.00 | 16 | 1007.5 |
| 20260502005035 | 89 | 229 | 7.8 | 12.2 | 0.00 | 0.00 | 0.00 | 16 | 1007.5 |
| 20260502004559 | 89 | 304 | 7.8 | 11.3 | 0.00 | 0.00 | 0.00 | 16 | 1007.5 |
| 20260502004039 | 89 | 238 | 7.0 | 12.2 | 0.00 | 0.00 | 0.00 | 16 | 1007.5 |
| 20260502003534 | 89 | 229 | 7.0 | 12.2 | 0.00 | 0.00 | 0.00 | 16 | 1007.5 |
| 20260502003046 | 89 | 242 | 8.7 | 13.0 | 0.00 | 0.00 | 0.00 | 16 | 1007.5 |
| 20260502002534 | 89 | 247 | 7.0 | 13.0 | 0.00 | 0.00 | 0.00 | 16 | 1007.5 |
| 20260502002035 | 89 | 249 | 7.8 | 11.3 | 0.00 | 0.00 | 0.00 | 16 | 1007.6 |
| 20260502001545 | 89 | 232 | 7.0 | 11.3 | 0.00 | 0.00 | 0.00 | 16 | 1007.7 |
| 20260502001034 | 89 | 240 | 5.2 | 11.3 | 0.00 | 0.00 | 0.00 | 17 | 1007.7 |
| 20260502000536 | 89 | 234 | 7.8 | 11.3 | 0.00 | 0.00 | 0.00 | 17 | 1007.8 |
| 20260502000044 | 89 | 277 | 4.3 | 12.2 | 0.00 | 0.00 | 0.00 | 17 | 1007.9 |
| 20260501235536 | 89 | 238 | 8.7 | 12.2 | 0.00 | 0.00 | 0.00 | 17 | 1007.9 |
| 20260501235034 | 90 | 259 | 6.1 | 13.0 | 0.00 | 0.00 | 0.00 | 17 | 1007.9 |
| 20260501234545 | 90 | 213 | 7.0 | 13.0 | 0.00 | 0.00 | 0.00 | 17 | 1007.9 |
| 20260501234035 | 90 | 252 | 5.2 | 10.4 | 0.00 | 0.00 | 0.00 | 17 | 1007.9 |
| 20260501233534 | 90 | 232 | 7.0 | 11.3 | 0.00 | 0.00 | 0.00 | 17 | 1007.9 |
| 20260501233041 | 90 | 236 | 5.2 | 12.2 | 0.00 | 0.00 | 0.00 | 17 | 1008.0 |
| 20260501232538 | 90 | 247 | 7.0 | 12.2 | 0.00 | 0.00 | 0.00 | 18 | 1007.9 |
| 20260501232035 | 89 | 265 | 3.5 | 12.2 | 0.00 | 0.00 | 0.00 | 18 | 1008.0 |
| 20260501231548 | 89 | 247 | 4.3 | 15.6 | 0.00 | 0.00 | 0.00 | 18 | 1008.0 |
| 20260501231035 | 89 | 284 | 7.0 | 15.6 | 0.00 | 0.00 | 0.00 | 19 | 1008.1 |
| 20260501230535 | 89 | 254 | 6.1 | 15.6 | 0.00 | 0.00 | 0.00 | 18 | 1008.0 |
| 20260501230056 | 89 | 273 | 4.3 | 15.6 | 0.00 | 0.00 | 0.00 | 18 | 1008.1 |
| 20260501225535 | 90 | 244 | 7.0 | 12.2 | 0.00 | 0.00 | 0.00 | 18 | 1008.1 |
| 20260501225035 | 89 | 232 | 4.3 | 12.2 | 0.00 | 0.00 | 0.00 | 18 | 1008.3 |
| 20260501224545 | 89 | 275 | 7.0 | 11.3 | 0.00 | 0.00 | 0.00 | 19 | 1008.4 |
| 20260501224034 | 89 | 254 | 2.6 | 13.0 | 0.00 | 0.00 | 0.00 | 18 | 1008.4 |
| 20260501223535 | 89 | 297 | 7.8 | 13.0 | 0.00 | 0.00 | 0.00 | 18 | 1008.5 |
| 20260501223048 | 89 | 275 | 2.6 | 12.2 | 0.00 | 0.00 | 0.00 | 20 | 1008.5 |
| 20260501222535 | 89 | 288 | 8.7 | 12.2 | 0.00 | 0.00 | 0.00 | 18 | 1008.6 |
| 20260501222033 | 90 | 261 | 7.0 | 11.3 | 0.00 | 0.00 | 0.00 | 19 | 1008.7 |
| 20260501221542 | 89 | 265 | 3.5 | 7.8 | 0.00 | 0.00 | 0.00 | 19 | 1008.7 |
| 20260501221036 | 88 | 265 | 1.7 | 13.0 | 0.00 | 0.00 | 0.00 | 19 | 1008.7 |
| 20260501220534 | 88 | 38 | 7.0 | 13.0 | 0.00 | 0.00 | 0.00 | 17 | 1009.0 |
| 20260501220053 | 88 | 272 | 7.8 | 14.8 | 0.00 | 0.00 | 0.00 | 19 | 1009.0 |
| 20260501215537 | 88 | 250 | 10.4 | 14.8 | 0.00 | 0.00 | 0.00 | 17 | 1009.1 |
| 20260501215035 | 88 | 302 | 6.1 | 13.9 | 0.00 | 0.00 | 0.00 | 18 | 1009.2 |
| 20260501214554 | 89 | 265 | 8.7 | 13.9 | 0.00 | 0.00 | 0.00 | 19 | 1009.3 |
| 20260501214034 | 88 | 266 | 4.3 | 11.3 | 0.00 | 0.00 | 0.00 | 18 | 1009.3 |
| 20260501213534 | 88 | 286 | 7.0 | 10.4 | 0.00 | 0.00 | 0.00 | 17 | 1009.4 |
| 20260501213046 | 88 | 325 | 2.6 | 13.9 | 0.00 | 0.00 | 0.00 | 17 | 1009.5 |
| 20260501212534 | 88 | 336 | 6.1 | 13.9 | 0.00 | 0.00 | 0.00 | 17 | 1009.6 |
| 20260501212034 | 88 | 279 | 7.0 | 12.2 | 0.00 | 0.00 | 0.00 | 17 | 1009.7 |
| 20260501211551 | 88 | 330 | 4.3 | 13.9 | 0.00 | 0.00 | 0.00 | 17 | 1009.8 |
| 20260501211035 | 88 | 9 | 3.5 | 13.9 | 0.00 | 0.00 | 0.00 | 19 | 1009.9 |
| 20260501210534 | 87 | 247 | 4.3 | 12.2 | 0.00 | 0.00 | 0.00 | 20 | 1009.9 |
| 20260501210048 | 87 | 296 | 7.0 | 13.0 | 0.00 | 0.00 | 0.00 | 18 | 1010.0 |
| 20260501205537 | 86 | 63 | 1.7 | 13.0 | 0.00 | 0.00 | 0.00 | 22 | 1010.0 |
| 20260501205034 | 86 | 284 | 8.7 | 13.0 | 0.00 | 0.00 | 0.00 | 21 | 1010.2 |
| 20260501204621 | 86 | 0 | 6.1 | 13.0 | 0.00 | 0.00 | 0.00 | 22 | 1010.2 |
| 20260501204035 | 86 | 247 | 6.1 | 13.9 | 0.00 | 0.00 | 0.00 | 22 | 1010.2 |
| 20260501203535 | 86 | 284 | 7.0 | 14.8 | 0.00 | 0.00 | 0.00 | 22 | 1010.3 |
| 20260501203047 | 86 | 273 | 5.2 | 14.8 | 0.00 | 0.00 | 0.00 | 22 | 1010.3 |
| 20260501202535 | 85 | 265 | 7.0 | 12.2 | 0.00 | 0.00 | 0.00 | 23 | 1010.3 |
| 20260501202035 | 85 | 310 | 4.3 | 13.9 | 0.00 | 0.00 | 0.00 | 23 | 1010.4 |
| 20260501201546 | 85 | 277 | 7.8 | 13.9 | 0.00 | 0.00 | 0.00 | 22 | 1010.4 |
| 20260501201034 | 85 | 241 | 9.6 | 14.8 | 0.00 | 0.00 | 0.00 | 23 | 1010.4 |
| 20260501200534 | 85 | 275 | 9.6 | 14.8 | 0.00 | 0.00 | 0.00 | 23 | 1010.4 |
| 20260501200053 | 85 | 67 | 1.7 | 13.9 | 0.00 | 0.00 | 0.00 | 24 | 1010.4 |
| 20260501195534 | 85 | 170 | 7.8 | 16.5 | 0.00 | 0.00 | 0.00 | 23 | 1010.5 |
| 20260501195035 | 85 | 279 | 7.0 | 16.5 | 0.00 | 0.00 | 0.00 | 24 | 1010.6 |
| 20260501194558 | 84 | 298 | 2.6 | 13.9 | 0.00 | 0.00 | 0.00 | 25 | 1010.7 |
| 20260501194035 | 84 | 262 | 7.8 | 13.9 | 0.00 | 0.00 | 0.00 | 24 | 1010.8 |
| 20260501193536 | 84 | 292 | 7.8 | 13.9 | 0.00 | 0.00 | 0.00 | 25 | 1010.9 |
| 20260501193045 | 84 | 309 | 3.5 | 13.9 | 0.00 | 0.00 | 0.00 | 26 | 1010.8 |
| 20260501192538 | 84 | 240 | 7.8 | 13.0 | 0.00 | 0.00 | 0.00 | 25 | 1011.0 |
| 20260501192035 | 83 | 279 | 7.8 | 11.3 | 0.00 | 0.00 | 0.00 | 26 | 1011.0 |
| 20260501191552 | 83 | 245 | 2.6 | 12.2 | 0.00 | 0.00 | 0.00 | 25 | 1011.1 |
| 20260501191036 | 83 | 184 | 3.5 | 13.0 | 0.00 | 0.00 | 0.00 | 25 | 1011.2 |
| 20260501190535 | 83 | 298 | 7.0 | 13.0 | 0.00 | 0.00 | 0.00 | 26 | 1011.2 |
| 20260501190048 | 83 | 237 | 5.2 | 12.2 | 0.00 | 0.00 | 0.00 | 26 | 1011.2 |
| 20260501185535 | 83 | 300 | 7.8 | 12.2 | 0.00 | 0.00 | 0.00 | 26 | 1011.3 |
| 20260501185035 | 83 | 250 | 2.6 | 10.4 | 0.00 | 0.00 | 0.00 | 26 | 1011.4 |
| 20260501184547 | 83 | 328 | 1.7 | 11.3 | 0.00 | 0.00 | 0.00 | 27 | 1011.5 |
| 20260501184035 | 83 | 280 | 7.0 | 11.3 | 0.00 | 0.00 | 0.00 | 26 | 1011.6 |
| 20260501183538 | 83 | 153 | 0.9 | 10.4 | 0.00 | 0.00 | 0.00 | 26 | 1011.6 |
| 20260501183048 | 83 | 249 | 7.0 | 13.9 | 0.00 | 0.00 | 0.00 | 26 | 1011.8 |
| 20260501182538 | 82 | 215 | 5.2 | 13.9 | 0.00 | 0.00 | 0.00 | 26 | 1011.8 |
| 20260501182035 | 82 | 334 | 2.6 | 7.8 | 0.00 | 0.00 | 0.00 | 27 | 1011.9 |
| 20260501181551 | 82 | 265 | 2.6 | 9.6 | 0.00 | 0.00 | 0.00 | 27 | 1012.0 |
| 20260501181035 | 81 | 238 | 4.3 | 11.3 | 0.00 | 0.00 | 0.00 | 28 | 1012.1 |